Weather in Panino

Russia / Nizhny Novgorod Oblast'     55°45′15″N   42°55′34″E
temp.,
°C
wind,
m/s
gust,
m/s
humid.,
%
clouds,
%
prec.,
mm/h
press.,
hPa
HPBL,
m
29 may, sun
sun2900:00+8sw513959 0.0 1006422
03:00+6sw412960 0.0 1007322
06:00+8sw410920 0.0 1009344
09:00+13sw596524 0.0 10101117
12:00+14sw696155 0.6 10111677
15:00+17wsw594896 0.9 10112298
18:00+13wnw48715 0.6 1012393
21:00+8sw37873 0.9 1014124
30 may, mon
mon3000:00+6sw310940 0.0 1016194
03:00+5sw38950 0.0 1017148
06:00+8wsw37890 0.0 1018196
09:00+14wsw46620 0.0 1019824
12:00+17w45495 0.0 10201646
15:00+18w34452 0.0 10201838
18:00+17wsw2462100 0.0 1021160
21:00+12sw227199 0.0 102227
31 may, tue
tue3100:00+10ssw228199 0.0 102219
03:00+9sse2281100 0.0 102311
06:00+12se2476100 0.0 1023126
09:00+17s356078 0.0 1023713
12:00+20s345282 0.0 10221594
15:00+17s1470100 0.0 1022311
18:00+18ene2574100 0.0 1021214
21:00+14ese349072 0.0 102168
1 june, wed
wed100:00+12se31186100 0.0 1021210
03:00+12se41189100 0.0 1021254
06:00+14se41279100 0.0 1020417
09:00+13se51294100 1.3 1020499
12:00+13sse41195100 4.1 1020578
15:00+15sse2494100 4.8 1020228
18:00+17wnw238999 0.0 1021336
21:00+13n2297100 0.0 102124
2 june, thu
thu200:00+12nne229885 0.0 102131
03:00+11ne229823 0.0 102135
06:00+14ene239498 0.0 1020143
09:00+19e237798 0.0 1019594
12:00+22se236998 0.0 10181105
15:00+24se136568 0.2 10171039
18:00+21s4882100 3.4 1017261
21:00+17ssw51495100 8.2 1017532